SAS62F ESNQ-ESSA

Flight info

Callsign SAS62F
Flight time 1h 15m
Altitude 37000
Route VAGAS DCT OSK DCT SIPRI T31 VACRA
Aircraft A320/M-SDE3FGHIRWY/LB1

Departure

Time 2026-04-17 19:52
Airport Kiruna Airport (ESNQ)

Arrival

Time 2026-04-17 21:07
Airport Stockholm-Arlanda Airport (ESSA)
Time Latitude Longitude Altitude Speed Heading
2026-04-17 19:24 67.82479 20.33379 1455 ft 0 kts 59°
2026-04-17 19:46 67.82480 20.33383 1455 ft 2 kts 62°
2026-04-17 19:47 67.82478 20.33474 1455 ft 6 kts 96°
2026-04-17 19:47 67.82471 20.33603 1455 ft 8 kts 102°
2026-04-17 19:47 67.82443 20.33749 1455 ft 10 kts 123°
2026-04-17 19:47 67.82401 20.33918 1452 ft 12 kts 121°
2026-04-17 19:48 67.82431 20.34098 1455 ft 12 kts 33°
2026-04-17 19:48 67.82502 20.34221 1455 ft 13 kts 33°
2026-04-17 19:48 67.82584 20.34363 1453 ft 15 kts 33°
2026-04-17 19:48 67.82677 20.34527 1455 ft 17 kts 34°
2026-04-17 19:49 67.82779 20.34711 1455 ft 19 kts 34°
2026-04-17 19:49 67.82892 20.34913 1455 ft 20 kts 34°
2026-04-17 19:49 67.82995 20.35097 1455 ft 15 kts 33°
2026-04-17 19:49 67.83078 20.35190 1455 ft 10 kts
2026-04-17 19:50 67.83121 20.35252 1451 ft 5 kts 61°
2026-04-17 19:50 67.83115 20.35294 1453 ft 2 kts 137°
2026-04-17 19:50 67.83099 20.35280 1455 ft 2 kts 215°
2026-04-17 19:50 67.83096 20.35276 1455 ft 0 kts 215°
2026-04-17 19:51 67.82937 20.34991 1454 ft 70 kts 213°
2026-04-17 19:51 67.82301 20.33866 1455 ft 147 kts 213°
2026-04-17 19:51 67.81375 20.32191 1951 ft 166 kts 214°
2026-04-17 19:52 67.80426 20.30356 2908 ft 172 kts 213°
2026-04-17 19:52 67.79342 20.29120 3647 ft 171 kts 185°
2026-04-17 19:52 67.78174 20.29515 4181 ft 173 kts 160°
2026-04-17 19:52 67.76994 20.30655 4531 ft 189 kts 160°
2026-04-17 19:53 67.75681 20.31846 4814 ft 209 kts 162°
2026-04-17 19:53 67.74245 20.33070 5175 ft 227 kts 163°
2026-04-17 19:53 67.72686 20.34370 5668 ft 243 kts 163°
2026-04-17 19:53 67.71012 20.35624 6242 ft 257 kts 172°
2026-04-17 19:54 67.69197 20.35454 6856 ft 268 kts 192°
2026-04-17 19:54 67.67362 20.34375 7610 ft 273 kts 194°
2026-04-17 19:54 67.65512 20.33163 8436 ft 276 kts 194°
2026-04-17 19:54 67.63628 20.31944 9198 ft 282 kts 193°
2026-04-17 19:55 67.61696 20.30720 9964 ft 288 kts 193°
2026-04-17 19:55 67.59733 20.29482 10670 ft 295 kts 193°
2026-04-17 19:55 67.57666 20.28179 11017 ft 315 kts 193°
2026-04-17 19:55 67.55473 20.26833 11349 ft 333 kts 192°
2026-04-17 19:56 67.53132 20.25801 11718 ft 348 kts 187°
2026-04-17 19:56 67.50695 20.25008 12287 ft 356 kts 186°
2026-04-17 19:56 67.48213 20.24362 12951 ft 361 kts 185°
2026-04-17 19:56 67.45690 20.23758 13619 ft 366 kts 185°
2026-04-17 19:57 67.43146 20.23139 14277 ft 370 kts 185°
2026-04-17 19:57 67.40564 20.22472 14871 ft 374 kts 185°
2026-04-17 19:57 67.37961 20.21755 15469 ft 378 kts 186°
2026-04-17 19:57 67.35340 20.21012 16061 ft 381 kts 186°
2026-04-17 19:58 67.32684 20.20250 16642 ft 385 kts 186°
2026-04-17 19:58 67.30013 20.19484 17224 ft 389 kts 186°
2026-04-17 19:58 67.27311 20.18706 17800 ft 392 kts 186°
2026-04-17 19:58 67.24588 20.17931 18381 ft 394 kts 185°
2026-04-17 19:59 67.21852 20.17160 18921 ft 397 kts 185°
2026-04-17 19:59 67.19100 20.16391 19400 ft 400 kts 185°
2026-04-17 19:59 67.16321 20.15618 19870 ft 403 kts 185°
2026-04-17 19:59 67.13521 20.14840 20350 ft 406 kts 185°
2026-04-17 20:00 67.10699 20.14060 20836 ft 409 kts 185°
2026-04-17 20:00 67.07861 20.13274 21294 ft 412 kts 185°
2026-04-17 20:00 67.04999 20.12482 21737 ft 415 kts 185°
2026-04-17 20:00 67.02115 20.11682 22196 ft 418 kts 185°
2026-04-17 20:01 66.99212 20.10877 22650 ft 421 kts 185°
2026-04-17 20:01 66.96331 20.10084 23079 ft 423 kts 185°
2026-04-17 20:01 66.93356 20.09263 23513 ft 426 kts 185°
2026-04-17 20:01 66.90438 20.08459 23933 ft 429 kts 185°
2026-04-17 20:02 66.87465 20.07642 24300 ft 431 kts 185°
2026-04-17 20:02 66.84475 20.06822 24654 ft 434 kts 185°
2026-04-17 20:02 66.81458 20.06002 24935 ft 438 kts 185°
2026-04-17 20:02 66.78417 20.05186 25257 ft 441 kts 185°
2026-04-17 20:03 66.75357 20.04367 25593 ft 443 kts 185°
2026-04-17 20:03 66.72279 20.03539 25939 ft 446 kts 185°
2026-04-17 20:03 66.69184 20.02705 26279 ft 448 kts 185°
2026-04-17 20:03 66.66074 20.01868 26617 ft 450 kts 185°
2026-04-17 20:04 66.62950 20.01028 26935 ft 453 kts 185°
2026-04-17 20:04 66.59808 20.00174 27260 ft 455 kts 185°
2026-04-17 20:04 66.56649 19.99298 27580 ft 457 kts 185°
2026-04-17 20:04 66.53477 19.98438 27896 ft 459 kts 185°
2026-04-17 20:05 66.50291 19.97593 28198 ft 462 kts 185°
2026-04-17 20:05 66.47087 19.96753 28503 ft 464 kts 185°
2026-04-17 20:05 66.43869 19.95915 28791 ft 466 kts 185°
2026-04-17 20:05 66.40636 19.95070 29077 ft 468 kts 185°
2026-04-17 20:06 66.37385 19.94218 29356 ft 470 kts 186°
2026-04-17 20:06 66.34130 19.93358 29627 ft 472 kts 186°
2026-04-17 20:06 66.30858 19.92499 29882 ft 474 kts 186°
2026-04-17 20:06 66.27571 19.91641 30138 ft 476 kts 186°
2026-04-17 20:07 66.24269 19.90781 30496 ft 475 kts 185°
2026-04-17 20:07 66.22101 19.90218 30749 ft 473 kts 185°
2026-04-17 20:07 66.18831 19.89367 31102 ft 472 kts 185°
2026-04-17 20:07 66.15571 19.88517 31419 ft 471 kts 185°
2026-04-17 20:08 66.12314 19.87676 31731 ft 470 kts 185°
2026-04-17 20:08 66.09060 19.86847 32062 ft 470 kts 185°
2026-04-17 20:08 66.05813 19.86019 32389 ft 469 kts 185°
2026-04-17 20:08 66.02572 19.85192 32710 ft 468 kts 185°
2026-04-17 20:09 65.99331 19.84364 33037 ft 467 kts 185°
2026-04-17 20:09 65.96102 19.83541 33366 ft 466 kts 185°
2026-04-17 20:09 65.92870 19.82718 33698 ft 465 kts 185°
2026-04-17 20:09 65.89667 19.81904 34090 ft 462 kts 185°
2026-04-17 20:10 65.86468 19.81093 34424 ft 461 kts 185°
2026-04-17 20:10 65.83279 19.80290 34692 ft 461 kts 185°
2026-04-17 20:10 65.80091 19.79491 34942 ft 460 kts 185°
2026-04-17 20:10 65.76902 19.78691 35163 ft 461 kts 185°
2026-04-17 20:11 65.73711 19.77895 35380 ft 461 kts 185°
2026-04-17 20:11 65.70560 19.77116 35600 ft 462 kts 185°
2026-04-17 20:11 65.67364 19.76328 35826 ft 462 kts 185°
2026-04-17 20:11 65.64129 19.75535 36021 ft 462 kts 185°
2026-04-17 20:12 65.60926 19.74749 36219 ft 462 kts 185°
2026-04-17 20:12 65.57775 19.73969 36495 ft 461 kts 185°
2026-04-17 20:12 65.54573 19.73172 36643 ft 462 kts 185°
2026-04-17 20:12 65.51364 19.72378 36772 ft 463 kts 185°
2026-04-17 20:13 65.48160 19.71590 36954 ft 464 kts 185°
2026-04-17 20:13 65.44942 19.70802 37118 ft 465 kts 185°
2026-04-17 20:13 65.41725 19.70019 37290 ft 465 kts 185°
2026-04-17 20:14 65.35269 19.68459 37333 ft 467 kts 185°
2026-04-17 20:14 65.28807 19.66899 37337 ft 467 kts 185°
2026-04-17 20:15 65.22368 19.65359 37346 ft 464 kts 186°
2026-04-17 20:15 65.15936 19.63826 37344 ft 464 kts 186°
2026-04-17 20:16 65.09511 19.62296 37343 ft 464 kts 186°
2026-04-17 20:16 65.03084 19.60759 37342 ft 464 kts 186°
2026-04-17 20:17 64.96656 19.59235 37341 ft 464 kts 186°
2026-04-17 20:17 64.90234 19.57727 37345 ft 463 kts 186°
2026-04-17 20:18 64.83820 19.56249 37347 ft 463 kts 186°
2026-04-17 20:18 64.77417 19.54754 37353 ft 462 kts 186°
2026-04-17 20:19 64.71019 19.53259 37352 ft 462 kts 186°
2026-04-17 20:19 64.64614 19.51790 37352 ft 463 kts 186°
2026-04-17 20:20 64.58207 19.50337 37355 ft 462 kts 186°
2026-04-17 20:20 64.51810 19.48875 37363 ft 462 kts 186°
2026-04-17 20:21 64.45424 19.47419 37362 ft 461 kts 186°
2026-04-17 20:21 64.39035 19.45978 37360 ft 461 kts 186°
2026-04-17 20:22 64.32649 19.44538 37368 ft 461 kts 186°
2026-04-17 20:22 64.26257 19.43108 37361 ft 461 kts 186°
2026-04-17 20:23 64.19864 19.41692 37357 ft 462 kts 186°
2026-04-17 20:23 64.13465 19.40283 37356 ft 462 kts 186°
2026-04-17 20:24 64.07064 19.38878 37360 ft 463 kts 186°
2026-04-17 20:24 64.00654 19.37454 37354 ft 463 kts 186°
2026-04-17 20:25 63.94277 19.36044 37349 ft 463 kts 186°
2026-04-17 20:25 63.87864 19.34652 37350 ft 463 kts 186°
2026-04-17 20:26 63.81433 19.33271 37354 ft 464 kts 186°
2026-04-17 20:26 63.75009 19.31874 37352 ft 464 kts 186°
2026-04-17 20:27 63.68575 19.30488 37356 ft 466 kts 186°
2026-04-17 20:27 63.62081 19.29093 37340 ft 470 kts 187°
2026-04-17 20:28 63.55564 19.27709 37344 ft 470 kts 186°
2026-04-17 20:28 63.49049 19.26331 37332 ft 470 kts 186°
2026-04-17 20:29 63.42532 19.24972 37333 ft 470 kts 186°
2026-04-17 20:29 63.36012 19.23598 37314 ft 472 kts 186°
2026-04-17 20:30 63.26176 19.21554 37327 ft 474 kts 186°
2026-04-17 20:30 63.19600 19.20192 37330 ft 475 kts 186°
2026-04-17 20:31 63.13011 19.18822 37333 ft 475 kts 186°
2026-04-17 20:31 63.06429 19.17464 37336 ft 476 kts 186°
2026-04-17 20:32 62.99828 19.16113 37324 ft 477 kts 187°
2026-04-17 20:32 62.93224 19.14771 37337 ft 476 kts 186°
2026-04-17 20:33 62.86635 19.13443 37356 ft 475 kts 186°
2026-04-17 20:33 62.80063 19.12107 37351 ft 474 kts 186°
2026-04-17 20:34 62.73537 19.10798 37344 ft 474 kts 186°
2026-04-17 20:34 62.66970 19.09482 37347 ft 474 kts 186°
2026-04-17 20:35 62.60400 19.08162 37346 ft 474 kts 186°
2026-04-17 20:35 62.53835 19.06857 37344 ft 474 kts 186°
2026-04-17 20:36 62.47275 19.05565 37343 ft 474 kts 186°
2026-04-17 20:36 62.40702 19.04277 37326 ft 474 kts 186°
2026-04-17 20:37 62.34140 19.02991 37331 ft 474 kts 186°
2026-04-17 20:37 62.27566 19.01706 37328 ft 474 kts 186°
2026-04-17 20:38 62.20998 19.00429 37339 ft 474 kts 186°
2026-04-17 20:38 62.14430 18.99165 37338 ft 474 kts 186°
2026-04-17 20:39 62.07861 18.97902 37340 ft 474 kts 187°
2026-04-17 20:39 62.01304 18.96645 37356 ft 472 kts 186°
2026-04-17 20:40 61.94779 18.95414 37359 ft 470 kts 186°
2026-04-17 20:40 61.88280 18.94188 37354 ft 468 kts 187°
2026-04-17 20:41 61.81786 18.92948 37342 ft 469 kts 187°
2026-04-17 20:41 61.75301 18.91709 37344 ft 468 kts 187°
2026-04-17 20:42 61.68814 18.90491 37343 ft 468 kts 187°
2026-04-17 20:42 61.62338 18.89299 37339 ft 467 kts 187°
2026-04-17 20:43 61.55868 18.88113 37282 ft 467 kts 187°
2026-04-17 20:43 61.52631 18.87513 37016 ft 467 kts 187°
2026-04-17 20:43 61.49399 18.86917 36750 ft 466 kts 187°
2026-04-17 20:44 61.46207 18.86333 36498 ft 465 kts 187°
2026-04-17 20:44 61.42989 18.85737 36235 ft 465 kts 187°
2026-04-17 20:44 61.39757 18.85137 35983 ft 465 kts 187°
2026-04-17 20:44 61.36528 18.84539 35740 ft 465 kts 187°
2026-04-17 20:45 61.33305 18.83944 35490 ft 465 kts 187°
2026-04-17 20:45 61.30082 18.83353 35245 ft 465 kts 186°
2026-04-17 20:45 61.26860 18.82773 35002 ft 465 kts 186°
2026-04-17 20:45 61.23639 18.82190 34773 ft 464 kts 186°
2026-04-17 20:46 61.20420 18.81606 34526 ft 464 kts 186°
2026-04-17 20:46 61.17204 18.81030 34281 ft 464 kts 186°
2026-04-17 20:46 61.13994 18.80283 33997 ft 462 kts 194°
2026-04-17 20:46 61.10962 18.78217 33719 ft 459 kts 206°
2026-04-17 20:47 61.08038 18.75572 33382 ft 459 kts 206°
2026-04-17 20:47 61.05112 18.72910 32762 ft 460 kts 206°
2026-04-17 20:47 61.02177 18.70227 32249 ft 462 kts 206°
2026-04-17 20:47 60.99229 18.67534 31722 ft 464 kts 206°
2026-04-17 20:48 60.96270 18.64837 31209 ft 466 kts 206°
2026-04-17 20:48 60.93298 18.62138 30628 ft 468 kts 206°
2026-04-17 20:48 60.90317 18.59443 29726 ft 469 kts 206°
2026-04-17 20:48 60.87322 18.56743 28825 ft 471 kts 206°
2026-04-17 20:49 60.84319 18.54047 28272 ft 473 kts 206°
2026-04-17 20:49 60.81294 18.51331 27999 ft 475 kts 206°
2026-04-17 20:49 60.78252 18.48610 27729 ft 477 kts 206°
2026-04-17 20:49 60.75215 18.45900 27460 ft 478 kts 206°
2026-04-17 20:50 60.72171 18.43186 26808 ft 477 kts 206°
2026-04-17 20:50 60.69110 18.40464 25513 ft 483 kts 205°
2026-04-17 20:50 60.67059 18.38644 24679 ft 486 kts 205°
2026-04-17 20:50 60.63947 18.35886 23660 ft 486 kts 205°
2026-04-17 20:51 60.60900 18.33193 23429 ft 467 kts 205°
2026-04-17 20:51 60.57971 18.30612 22987 ft 454 kts 205°
2026-04-17 20:51 60.55070 18.28057 22094 ft 454 kts 205°
2026-04-17 20:51 60.52178 18.25504 21279 ft 452 kts 205°
2026-04-17 20:52 60.49297 18.22964 20458 ft 451 kts 205°
2026-04-17 20:52 60.46424 18.20440 19657 ft 449 kts 205°
2026-04-17 20:52 60.43559 18.17930 18853 ft 448 kts 205°
2026-04-17 20:52 60.40700 18.15436 17863 ft 448 kts 205°
2026-04-17 20:53 60.37829 18.12936 16779 ft 444 kts 204°
2026-04-17 20:53 60.35025 18.10502 15588 ft 434 kts 204°
2026-04-17 20:53 60.32299 18.08141 14695 ft 418 kts 204°
2026-04-17 20:53 60.29639 18.05837 13767 ft 414 kts 204°
2026-04-17 20:54 60.27012 18.03562 13168 ft 408 kts 204°
2026-04-17 20:54 60.24429 18.01334 12544 ft 399 kts 204°
2026-04-17 20:54 60.21887 17.99137 11853 ft 397 kts 204°
2026-04-17 20:54 60.19378 17.96982 11530 ft 386 kts 204°
2026-04-17 20:55 60.16953 17.94923 11401 ft 369 kts 204°
2026-04-17 20:55 60.14650 17.92970 11262 ft 352 kts 204°
2026-04-17 20:55 60.12454 17.91101 11129 ft 335 kts 204°
2026-04-17 20:55 60.10359 17.89292 10993 ft 321 kts 204°
2026-04-17 20:56 60.08354 17.87570 10859 ft 303 kts 204°
2026-04-17 20:56 60.06474 17.85963 10467 ft 292 kts 204°
2026-04-17 20:56 60.04616 17.84392 10090 ft 286 kts 204°
2026-04-17 20:56 60.02798 17.82851 9887 ft 279 kts 204°
2026-04-17 20:57 60.01044 17.81360 9745 ft 269 kts 204°
2026-04-17 20:57 59.99351 17.79918 9594 ft 261 kts 204°
2026-04-17 20:57 59.97689 17.78495 9460 ft 260 kts 204°
2026-04-17 20:57 59.96028 17.77073 9217 ft 261 kts 204°
2026-04-17 20:58 59.94359 17.75656 8841 ft 261 kts 204°
2026-04-17 20:58 59.92724 17.74273 8479 ft 256 kts 204°
2026-04-17 20:58 59.91101 17.72902 8078 ft 250 kts 204°
2026-04-17 20:58 59.89519 17.71570 7695 ft 243 kts 204°
2026-04-17 20:59 59.87958 17.70259 7345 ft 240 kts 204°
2026-04-17 20:59 59.86431 17.68973 6978 ft 242 kts 204°
2026-04-17 20:59 59.84870 17.67660 6600 ft 244 kts 203°
2026-04-17 20:59 59.83309 17.66348 6258 ft 243 kts 203°
2026-04-17 21:00 59.81748 17.65045 5886 ft 243 kts 203°
2026-04-17 21:00 59.80204 17.63782 5415 ft 235 kts 203°
2026-04-17 21:00 59.78738 17.62570 5045 ft 221 kts 204°
2026-04-17 21:00 59.77356 17.61407 4861 ft 212 kts 204°
2026-04-17 21:01 59.76028 17.60290 4626 ft 204 kts 204°
2026-04-17 21:01 59.74676 17.59358 4350 ft 213 kts 194°
2026-04-17 21:01 59.73146 17.58935 4059 ft 226 kts 182°
2026-04-17 21:01 59.71551 17.58941 3599 ft 233 kts 179°
2026-04-17 21:02 59.69924 17.58961 3205 ft 236 kts 180°
2026-04-17 21:02 59.68292 17.58931 3023 ft 228 kts 181°
2026-04-17 21:02 59.66772 17.58953 3008 ft 210 kts 176°
2026-04-17 21:02 59.65391 17.59505 3042 ft 200 kts 158°
2026-04-17 21:03 59.64203 17.60848 3074 ft 195 kts 139°
2026-04-17 21:03 59.63314 17.62812 3036 ft 191 kts 122°
2026-04-17 21:03 59.62656 17.65081 2974 ft 190 kts 115°
2026-04-17 21:03 59.62340 17.67551 2762 ft 184 kts 88°
2026-04-17 21:04 59.62518 17.69967 2505 ft 174 kts 73°
2026-04-17 21:04 59.62880 17.72158 2233 ft 164 kts 67°
2026-04-17 21:04 59.63241 17.74293 2009 ft 163 kts 72°
2026-04-17 21:04 59.63557 17.76437 1799 ft 161 kts 74°
2026-04-17 21:05 59.63836 17.78578 1650 ft 160 kts 73°
2026-04-17 21:05 59.64113 17.80643 1451 ft 148 kts 73°
2026-04-17 21:05 59.64379 17.82552 1255 ft 141 kts 73°
2026-04-17 21:05 59.64626 17.84388 1045 ft 136 kts 72°
2026-04-17 21:06 59.64876 17.86193 865 ft 136 kts 72°
2026-04-17 21:06 59.65117 17.87994 681 ft 136 kts 73°
2026-04-17 21:06 59.65350 17.89815 493 ft 137 kts 75°
2026-04-17 21:06 59.65586 17.91633 353 ft 137 kts 74°
2026-04-17 21:07 59.65822 17.93452 212 ft 136 kts 73°
2026-04-17 21:07 59.66044 17.95184 136 ft 117 kts 75°
2026-04-17 21:07 59.66199 17.96406 139 ft 67 kts 76°
2026-04-17 21:07 59.66291 17.97127 138 ft 49 kts 76°
2026-04-17 21:08 59.66360 17.97679 137 ft 31 kts 76°
2026-04-17 21:08 59.66352 17.97909 136 ft 10 kts 142°
2026-04-17 21:08 59.66302 17.97927 138 ft 6 kts 191°
2026-04-17 21:08 59.66263 17.97873 138 ft 8 kts 227°
2026-04-17 21:09 59.66219 17.97776 138 ft 12 kts 227°
2026-04-17 21:09 59.66175 17.97656 138 ft 10 kts 244°
2026-04-17 21:09 59.66159 17.97537 138 ft 8 kts 257°
2026-04-17 21:09 59.66145 17.97433 138 ft 8 kts 256°
2026-04-17 21:10 59.66127 17.97288 138 ft 15 kts 255°
2026-04-17 21:10 59.66102 17.97099 138 ft 13 kts 256°
2026-04-17 21:10 59.66080 17.96931 138 ft 12 kts 256°
2026-04-17 21:10 59.66058 17.96752 138 ft 16 kts 256°
2026-04-17 21:11 59.66028 17.96517 138 ft 18 kts 256°
2026-04-17 21:11 59.65998 17.96267 138 ft 19 kts 256°
2026-04-17 21:11 59.65963 17.96010 138 ft 20 kts 254°
2026-04-17 21:11 59.65929 17.95738 138 ft 21 kts 256°
2026-04-17 21:12 59.65894 17.95455 138 ft 22 kts 255°
2026-04-17 21:12 59.65855 17.95157 138 ft 21 kts 256°
2026-04-17 21:12 59.65822 17.94891 138 ft 20 kts 256°
2026-04-17 21:12 59.65787 17.94640 138 ft 18 kts 255°
2026-04-17 21:13 59.65758 17.94422 138 ft 17 kts 255°
2026-04-17 21:13 59.65730 17.94190 138 ft 18 kts 256°
2026-04-17 21:13 59.65700 17.93950 138 ft 18 kts 256°
2026-04-17 21:13 59.65671 17.93710 138 ft 18 kts 254°
2026-04-17 21:14 59.65639 17.93465 138 ft 18 kts 255°
2026-04-17 21:14 59.65613 17.93250 138 ft 12 kts 256°
2026-04-17 21:14 59.65558 17.93148 138 ft 12 kts 179°
2026-04-17 21:14 59.65472 17.93194 137 ft 13 kts 156°
2026-04-17 21:15 59.65387 17.93264 137 ft 12 kts 165°
2026-04-17 21:15 59.65311 17.93295 137 ft 8 kts 185°
2026-04-17 21:15 59.65290 17.93230 137 ft 3 kts 256°
2026-04-17 21:15 59.65286 17.93193 137 ft 2 kts 256°
2026-04-17 21:16 59.65285 17.93186 137 ft 0 kts 256°